EW7239 Weather Reports


time (UTC)temp
F
wind
direction
speed
knots
gust
knots
rain 1hr
in
rain 24hr
in
rain mn
in
humidity
%
barometer
mb
20260831102546 70 250 0.9 2.6 0.00 0.00 0.00 83 1013.1
20260831102046 70 250 0.9 2.6 0.00 0.00 0.00 82 1013.1
20260831101547 70 250 0.9 2.6 0.00 0.00 0.00 82 1013.1
20260831101042 70 250 0.9 2.6 0.00 0.00 0.00 82 1013.0
20260831100542 70 250 0.9 2.6 0.00 0.00 0.00 82 1013.0
20260831100055 70 250 0.9 2.6 0.00 0.00 0.00 82 1013.0
20260831095542 70 250 0.9 2.6 0.00 0.00 0.00 82 1013.0
20260831095309 70 250 0.9 2.6 0.00 0.00 0.00 82 1012.9
20260831094538 71 250 0.9 1.7 0.00 0.00 0.00 82 1012.9
20260831094039 71 250 0.9 1.7 0.00 0.00 0.00 82 1013.0
20260831093034 71 250 0.9 1.7 0.00 0.00 0.00 82 1013.0
20260831092534 71 250 0.9 2.6 0.00 0.00 0.00 82 1013.0
20260831092035 71 250 0.9 2.6 0.00 0.00 0.00 82 1013.0
20260831091534 71 250 0.9 2.6 0.00 0.00 0.00 82 1013.0
20260831091041 71 250 0.9 2.6 0.00 0.00 0.00 81 1012.9
20260831090530 71 250 0.0 3.5 0.00 0.00 0.00 81 1012.9
20260831090030 71 250 0.9 3.5 0.00 0.00 0.00 81 1012.9
20260831085532 71 250 0.9 3.5 0.00 0.00 0.00 81 1012.8
20260831085255 71 250 0.9 4.3 0.00 0.00 0.00 81 1012.9
20260831084526 71 250 1.7 4.3 0.00 0.00 0.00 80 1012.9
20260831084026 71 250 0.9 3.5 0.00 0.00 0.00 80 1013.0
20260831083526 71 250 0.9 2.6 0.00 0.00 0.00 80 1013.0
20260831083025 71 250 0.9 2.6 0.00 0.00 0.00 79 1013.0
20260831082755 72 250 0.9 3.5 0.00 0.00 0.00 79 1013.1
20260831082025 72 250 1.7 3.5 0.00 0.00 0.00 79 1013.0
20260831081525 72 250 1.7 4.3 0.00 0.00 0.00 79 1013.1
20260831081255 72 250 1.7 4.3 0.00 0.00 0.00 79 1013.2
20260831080525 72 250 1.7 4.3 0.00 0.00 0.00 78 1013.2
20260831075526 72 250 1.7 4.3 0.00 0.00 0.00 78 1013.3
20260831075024 72 250 1.7 3.5 0.00 0.00 0.00 78 1013.3
20260831074526 72 250 1.7 3.5 0.00 0.00 0.00 78 1013.2
20260831074255 72 250 0.9 3.5 0.00 0.00 0.00 77 1013.3
20260831073526 72 250 0.9 3.5 0.00 0.00 0.00 77 1013.3
20260831073024 72 250 0.9 2.6 0.00 0.00 0.00 77 1013.2
20260831072525 72 250 0.9 2.6 0.00 0.00 0.00 76 1013.1
20260831072025 73 250 1.7 3.5 0.00 0.00 0.00 76 1013.1
20260831071525 73 250 0.9 3.5 0.00 0.00 0.00 76 1013.2
20260831071024 73 250 1.7 4.3 0.00 0.00 0.00 76 1013.1
20260831070757 73 250 0.9 4.3 0.00 0.00 0.00 76 1013.0
20260831070027 73 250 0.9 3.5 0.00 0.00 0.00 76 1013.0
20260831065756 73 250 0.9 2.6 0.00 0.00 0.00 76 1012.9
20260831065039 73 250 1.7 2.6 0.00 0.00 0.00 75 1012.9
20260831064527 73 250 1.7 3.5 0.00 0.00 0.00 74 1012.9
20260831064026 73 250 1.7 3.5 0.00 0.00 0.00 74 1012.9
20260831063524 74 250 1.7 3.5 0.00 0.00 0.00 74 1012.9
20260831063256 74 250 1.7 2.6 0.00 0.00 0.00 73 1012.9
20260831062755 74 250 0.9 2.6 0.00 0.00 0.00 72 1012.8
20260831062025 74 250 0.9 3.5 0.00 0.00 0.00 72 1012.9
20260831061522 74 250 1.7 5.2 0.00 0.00 0.00 72 1012.9
20260831061019 74 250 2.6 7.0 0.00 0.00 0.00 72 1012.7
20260831060518 74 250 2.6 7.0 0.00 0.00 0.00 72 1012.8
20260831060248 74 252 2.6 7.0 0.00 0.00 0.00 72 1012.9
20260831055517 74 251 2.6 7.0 0.00 0.00 0.00 72 1012.9
20260831055016 74 248 2.6 6.1 0.00 0.00 0.00 73 1012.8
20260831054515 74 248 2.6 6.1 0.00 0.00 0.00 73 1012.8
20260831054015 74 244 2.6 5.2 0.00 0.00 0.00 73 1012.9
20260831053516 75 244 1.7 5.2 0.00 0.00 0.00 72 1012.9
20260831053011 75 245 2.6 5.2 0.00 0.00 0.00 72 1012.9
20260831052751 75 245 2.6 6.1 0.00 0.00 0.00 72 1012.9
20260831052008 75 244 2.6 6.1 0.00 0.00 0.00 72 1012.9
20260831051508 75 243 3.5 7.0 0.00 0.00 0.00 72 1012.8
20260831051007 75 245 3.5 7.0 0.00 0.00 0.00 72 1012.8
20260831050509 75 242 2.6 7.8 0.00 0.00 0.00 71 1012.7
20260831050008 75 234 2.6 7.8 0.00 0.00 0.00 71 1012.8
20260831045508 75 249 2.6 6.1 0.00 0.00 0.00 70 1012.8
20260831045008 76 249 3.5 7.8 0.00 0.00 0.00 70 1012.7
20260831044506 76 252 3.5 7.8 0.00 0.00 0.00 70 1012.7
20260831044004 75 227 2.6 6.1 0.00 0.00 0.00 70 1012.6
20260831043504 75 225 2.6 5.2 0.00 0.00 0.00 70 1012.6
20260831043002 76 225 1.7 4.3 0.00 0.00 0.00 69 1012.5
20260831042500 76 225 2.6 5.2 0.00 0.00 0.00 69 1012.5
20260831042000 76 225 2.6 5.2 0.00 0.00 0.00 68 1012.5
20260831041948 76 225 3.5 7.8 0.00 0.00 0.00 68 1012.2
20260831041903 77 225 4.3 8.7 0.00 0.00 0.00 68 1012.1
20260831040727 77 214 4.3 8.7 0.00 0.00 0.00 67 1012.0
20260831035953 77 223 3.5 7.0 0.00 0.00 0.00 67 1012.0
20260831035451 77 225 3.5 7.8 0.00 0.00 0.00 67 1011.9
20260831034952 77 225 4.3 7.8 0.00 0.00 0.00 67 1011.9
20260831034451 78 219 3.5 7.0 0.00 0.00 0.00 67 1011.8
20260831033953 78 221 3.5 7.0 0.00 0.00 0.00 66 1011.6
20260831033450 78 216 4.3 9.6 0.00 0.00 0.00 66 1011.4
20260831032951 79 219 6.1 9.6 0.00 0.00 0.00 65 1011.3
20260831032448 79 221 6.1 10.4 0.00 0.00 0.00 65 1011.2
20260831031947 79 233 5.2 10.4 0.00 0.00 0.00 64 1011.2
20260831031448 79 215 5.2 8.7 0.00 0.00 0.00 64 1011.1
20260831030946 80 215 5.2 9.6 0.00 0.00 0.00 62 1011.0
20260831025944 80 217 6.1 9.6 0.00 0.00 0.00 60 1010.7
20260831025440 80 218 6.1 9.6 0.00 0.00 0.00 60 1010.7
20260831024938 81 230 6.1 10.4 0.00 0.00 0.00 59 1010.7
20260831024438 81 214 5.2 10.4 0.00 0.00 0.00 59 1010.7
20260831023939 82 223 6.1 11.3 0.00 0.00 0.00 57 1010.5
20260831023709 82 227 6.1 11.3 0.00 0.00 0.00 56 1010.5
20260831022933 82 205 7.0 12.2 0.00 0.00 0.00 55 1010.4
20260831022432 83 225 7.8 13.9 0.00 0.00 0.00 55 1010.4
20260831021933 83 221 7.0 13.9 0.00 0.00 0.00 54 1010.3
20260831021432 83 220 7.0 12.2 0.00 0.00 0.00 54 1010.3
20260831020930 84 219 7.8 13.9 0.00 0.00 0.00 53 1010.3
20260831020701 84 216 7.0 13.9 0.00 0.00 0.00 52 1010.3
20260831015929 85 221 7.0 13.0 0.00 0.00 0.00 51 1010.3
20260831015659 85 223 7.8 13.9 0.00 0.00 0.00 51 1010.3
20260831015156 85 221 7.8 13.9 0.00 0.00 0.00 50 1010.3
20260831014427 86 217 7.0 12.2 0.00 0.00 0.00 50 1010.3
20260831013919 86 211 7.0 12.2 0.00 0.00 0.00 49 1010.4
20260831013418 86 215 7.0 12.2 0.00 0.00 0.00 49 1010.4
20260831012918 86 219 7.8 14.8 0.00 0.00 0.00 49 1010.4
20260831012414 87 220 8.7 14.8 0.00 0.00 0.00 48 1010.4
20260831011914 87 221 8.7 12.2 0.00 0.00 0.00 48 1010.3
20260831011414 88 220 8.7 13.9 0.00 0.00 0.00 47 1010.3
20260831010911 88 216 8.7 13.9 0.00 0.00 0.00 47 1010.2
20260831010642 88 217 8.7 14.8 0.00 0.00 0.00 46 1010.2
20260831005909 89 220 8.7 14.8 0.00 0.00 0.00 46 1010.2
20260831005409 89 227 7.8 13.9 0.00 0.00 0.00 46 1010.3
20260831005142 89 232 8.7 13.9 0.00 0.00 0.00 46 1010.3
20260831004410 89 223 8.7 14.8 0.00 0.00 0.00 46 1010.2
20260831003910 89 197 7.8 14.8 0.00 0.00 0.00 46 1010.2
20260831003411 90 225 7.8 13.0 0.00 0.00 0.00 45 1010.2
20260831002910 90 216 8.7 16.5 0.00 0.00 0.00 44 1010.2
20260831002411 90 234 8.7 16.5 0.00 0.00 0.00 45 1010.3
20260831001909 91 231 7.8 14.8 0.00 0.00 0.00 45 1010.2
20260831001409 90 216 7.8 15.6 0.00 0.00 0.00 45 1010.2
20260831000909 90 226 8.7 15.6 0.00 0.00 0.00 45 1010.2
20260831000410 90 264 8.7 13.9 0.00 0.00 0.00 46 1010.2
20260830235909 90 228 9.6 13.9 0.00 0.00 0.00 46 1010.3
20260830235407 91 223 8.7 13.9 0.00 0.00 0.00 46 1010.3
20260830234907 91 221 7.8 13.9 0.00 0.00 0.00 45 1010.2
20260830234408 92 234 7.0 12.2 0.00 0.00 0.00 44 1010.2
20260830233909 92 242 7.8 15.6 0.00 0.00 0.00 44 1010.3
20260830233408 92 220 7.8 15.6 0.00 0.00 0.00 44 1010.3
20260830233140 92 214 7.8 14.8 0.00 0.00 0.00 42 1010.3
20260830232638 92 222 8.7 13.9 0.00 0.00 0.00 43 1010.3
20260830231907 92 217 7.8 13.9 0.00 0.00 0.00 43 1010.4
20260830230907 92 233 7.8 13.9 0.00 0.00 0.00 44 1010.3
20260830230408 93 227 7.8 13.9 0.00 0.00 0.00 43 1010.4
20260830225920 93 230 7.8 13.0 0.00 0.00 0.00 43 1010.4
20260830225408 92 241 8.7 16.5 0.00 0.00 0.00 44 1010.4
20260830224907 92 233 8.7 16.5 0.00 0.00 0.00 44 1010.4
20260830224406 93 211 7.8 13.0 0.00 0.00 0.00 44 1010.5
20260830223908 93 242 7.8 13.0 0.00 0.00 0.00 43 1010.6
20260830223403 92 222 7.8 13.9 0.00 0.00 0.00 46 1010.6
20260830222905 93 239 9.6 14.8 0.00 0.00 0.00 45 1010.6
20260830222402 92 219 9.6 14.8 0.00 0.00 0.00 45 1010.7
20260830221903 92 221 8.7 14.8 0.00 0.00 0.00 45 1010.8
20260830221401 93 205 7.8 14.8 0.00 0.00 0.00 43 1010.8
20260830220902 93 225 8.7 15.6 0.00 0.00 0.00 44 1010.9
20260830220402 93 223 9.6 15.6 0.00 0.00 0.00 44 1011.0
20260830220129 93 221 8.7 13.9 0.00 0.00 0.00 44 1011.0
20260830215357 94 226 8.7 17.4 0.00 0.00 0.00 43 1011.1
20260830214859 94 226 7.8 17.4 0.00 0.00 0.00 41 1011.2
20260830214354 94 232 7.8 15.6 0.00 0.00 0.00 42 1011.2
20260830213854 94 217 7.8 15.6 0.00 0.00 0.00 42 1011.3
20260830213625 94 223 7.8 16.5 0.00 0.00 0.00 42 1011.3
20260830213124 94 225 7.8 16.5 0.00 0.00 0.00 42 1011.3
20260830212351 95 250 7.8 16.5 0.00 0.00 0.00 42 1011.3
20260830211851 96 219 7.0 13.9 0.00 0.00 0.00 40 1011.4
20260830211351 95 237 7.8 13.9 0.00 0.00 0.00 39 1011.4
20260830210852 96 213 7.0 13.9 0.00 0.00 0.00 37 1011.4
20260830210351 96 223 7.0 12.2 0.00 0.00 0.00 37 1011.4
20260830210123 96 219 6.1 12.2 0.00 0.00 0.00 36 1011.5
20260830205352 96 217 6.1 13.0 0.00 0.00 0.00 37 1011.6
20260830204853 96 243 7.0 13.0 0.00 0.00 0.00 37 1011.7
20260830204351 96 229 6.1 10.4 0.00 0.00 0.00 36 1011.6
20260830203851 96 254 6.1 10.4 0.00 0.00 0.00 36 1011.6
20260830203351 96 249 5.2 10.4 0.00 0.00 0.00 37 1011.7
20260830202853 96 268 6.1 10.4 0.00 0.00 0.00 37 1011.7
20260830202351 96 221 6.1 10.4 0.00 0.00 0.00 37 1011.7
20260830201847 96 228 5.2 11.3 0.00 0.00 0.00 39 1011.7
20260830201348 96 225 5.2 11.3 0.00 0.00 0.00 40 1011.7
20260830200616 96 225 4.3 8.7 0.00 0.00 0.00 37 1011.8
20260830200115 96 235 4.3 7.0 0.00 0.00 0.00 37 1011.7
20260830195340 96 200 4.3 9.6 0.00 0.00 0.00 36 1011.7
20260830194839 96 241 4.3 9.6 0.00 0.00 0.00 36 1011.9
20260830194340 95 264 3.5 8.7 0.00 0.00 0.00 35 1011.9
20260830193612 95 235 3.5 7.8 0.00 0.00 0.00 33 1012.0
20260830192839 94 247 4.3 8.7 0.00 0.00 0.00 33 1012.0
20260830192340 94 225 5.2 8.7 0.00 0.00 0.00 34 1012.1
20260830191841 94 203 3.5 7.8 0.00 0.00 0.00 36 1012.1
20260830191338 93 215 2.6 6.1 0.00 0.00 0.00 38 1012.2
20260830190837 93 238 3.5 6.1 0.00 0.00 0.00 38 1012.3
20260830190351 93 237 3.5 6.1 0.00 0.00 0.00 38 1012.3
20260830185839 93 240 1.7 6.1 0.00 0.00 0.00 38 1012.5
20260830185338 92 223 2.6 6.1 0.00 0.00 0.00 38 1012.6
20260830184839 92 220 2.6 6.1 0.00 0.00 0.00 40 1012.6
20260830184338 92 205 2.6 6.1 0.00 0.00 0.00 41 1012.7
20260830183837 91 219 2.6 5.2 0.00 0.00 0.00 41 1012.7
20260830183336 91 219 1.7 5.2 0.00 0.00 0.00 42 1012.7
20260830182837 91 221 3.5 6.1 0.00 0.00 0.00 42 1012.8
20260830182336 90 221 2.6 6.1 0.00 0.00 0.00 44 1012.8
20260830181836 90 223 1.7 5.2 0.00 0.00 0.00 44 1012.8
20260830181337 90 222 2.6 5.2 0.00 0.00 0.00 43 1012.7
20260830180837 90 223 1.7 5.2 0.00 0.00 0.00 44 1012.8
20260830180333 90 225 2.6 5.2 0.00 0.00 0.00 45 1012.7
20260830175835 89 225 1.7 5.2 0.00 0.00 0.00 46 1012.7
20260830175332 89 211 1.7 4.3 0.00 0.00 0.00 47 1012.7
20260830174833 88 211 1.7 5.2 0.00 0.00 0.00 47 1012.8
20260830174329 88 211 1.7 5.2 0.00 0.00 0.00 48 1012.8
20260830173828 87 212 1.7 5.2 0.00 0.00 0.00 49 1012.9
20260830173328 87 212 1.7 5.2 0.00 0.00 0.00 50 1012.9
20260830172829 86 228 2.6 4.3 0.00 0.00 0.00 52 1013.0
20260830172328 86 228 1.7 4.3 0.00 0.00 0.00 52 1012.9
20260830171828 86 230 1.7 4.3 0.00 0.00 0.00 53 1012.8
20260830171556 85 230 1.7 5.2 0.00 0.00 0.00 53 1012.9
20260830170825 85 231 1.7 5.2 0.00 0.00 0.00 54 1012.9
20260830170323 85 231 0.9 4.3 0.00 0.00 0.00 55 1012.9
20260830165824 84 231 1.7 4.3 0.00 0.00 0.00 56 1012.9
20260830165323 84 231 1.7 4.3 0.00 0.00 0.00 58 1012.9
20260830164823 84 231 1.7 3.5 0.00 0.00 0.00 58 1012.9
20260830164321 83 230 0.9 3.5 0.00 0.00 0.00 59 1012.9
20260830164050 83 231 1.7 3.5 0.00 0.00 0.00 60 1013.0
20260830163320 83 230 0.9 3.5 0.00 0.00 0.00 60 1012.9
20260830162817 82 231 0.9 3.5 0.00 0.00 0.00 61 1012.9
20260830162316 82 231 0.9 3.5 0.00 0.00 0.00 63 1012.9
20260830161816 81 231 0.9 3.5 0.00 0.00 0.00 65 1013.0
20260830161328 80 231 1.7 3.5 0.00 0.00 0.00 65 1013.0
20260830160813 80 231 1.7 2.6 0.00 0.00 0.00 66 1013.0
20260830160310 80 231 0.9 3.5 0.00 0.00 0.00 67 1013.0
20260830155810 80 231 0.9 3.5 0.00 0.00 0.00 68 1013.0
20260830155541 79 231 0.0 0.0 0.00 0.00 0.00 68 1013.1
20260830154809 79 231 0.0 0.0 0.00 0.00 0.00 71 1013.2
20260830154308 78 231 0.0 0.0 0.00 0.00 0.00 72 1013.2
20260830153809 77 231 0.0 0.0 0.00 0.00 0.00 74 1013.2
20260830153308 77 231 0.0 0.0 0.00 0.00 0.00 77 1013.2
20260830152806 76 231 0.0 0.0 0.00 0.00 0.00 77 1013.1
20260830152548 75 231 0.0 0.0 0.00 0.00 0.00 78 1013.1
20260830151804 75 231 0.0 0.0 0.00 0.00 0.00 79 1013.1
20260830151259 75 231 0.0 0.0 0.00 0.00 0.00 81 1013.2
20260830150300 74 231 0.0 0.0 0.00 0.00 0.00 81 1013.2
20260830145755 74 231 0.0 0.0 0.00 0.00 0.00 82 1013.3
20260830145523 73 231 0.0 0.0 0.00 0.00 0.00 82 1013.3
20260830144752 73 231 0.0 0.9 0.00 0.00 0.00 82 1013.3
20260830144250 73 231 0.0 0.9 0.00 0.00 0.00 82 1013.2
20260830143748 72 231 0.0 1.7 0.00 0.00 0.00 82 1013.2
20260830143247 72 231 0.0 1.7 0.00 0.00 0.00 82 1013.2
20260830142746 72 231 0.0 0.9 0.00 0.00 0.00 82 1013.2
20260830142245 72 231 0.0 0.0 0.00 0.00 0.00 82 1013.1
20260830141743 72 231 0.0 0.9 0.00 0.00 0.00 82 1013.1
20260830141243 72 231 0.0 0.9 0.00 0.00 0.00 82 1013.1
20260830140741 72 231 0.0 0.0 0.00 0.00 0.00 82 1013.0
20260830140240 72 231 0.0 1.7 0.00 0.00 0.00 82 1013.0
20260830135740 72 231 0.9 1.7 0.00 0.00 0.00 82 1013.0
20260830135239 72 231 0.9 1.7 0.00 0.00 0.00 82 1013.0
20260830134741 72 230 0.0 1.7 0.00 0.00 0.00 82 1012.9
20260830133737 72 231 0.0 1.7 0.00 0.00 0.00 81 1012.8
20260830133237 72 231 0.0 1.7 0.00 0.00 0.00 81 1012.8
20260830132738 72 231 0.0 0.0 0.00 0.00 0.00 81 1012.7
20260830132238 72 231 0.0 0.0 0.00 0.00 0.00 81 1012.7
20260830131751 72 231 0.0 0.9 0.00 0.00 0.00 81 1012.7
20260830131237 72 231 0.0 0.9 0.00 0.00 0.00 81 1012.7
20260830131009 72 231 0.0 0.0 0.00 0.00 0.00 81 1012.6
20260830130237 72 231 0.0 0.0 0.00 0.00 0.00 81 1012.6
20260830125737 72 231 0.0 0.9 0.00 0.00 0.00 79 1012.6
20260830125236 72 231 0.0 0.9 0.00 0.00 0.00 80 1012.6
20260830124734 72 231 0.0 1.7 0.00 0.00 0.00 80 1012.5
20260830124234 72 231 0.0 1.7 0.00 0.00 0.00 80 1012.5
20260830123732 72 231 0.0 1.7 0.00 0.00 0.00 80 1012.3
20260830123229 72 231 0.0 1.7 0.00 0.00 0.00 80 1012.3
20260830122730 72 231 0.0 0.9 0.00 0.00 0.00 80 1012.2
20260830122228 72 231 0.0 0.9 0.00 0.00 0.00 79 1012.1
20260830121727 72 231 0.0 0.9 0.00 0.00 0.00 79 1012.0
20260830121226 72 231 0.0 0.0 0.00 0.00 0.00 78 1012.0
20260830120725 73 230 0.0 0.0 0.00 0.00 0.00 79 1012.0
20260830120238 73 231 0.0 0.0 0.00 0.00 0.00 79 1011.9
20260830115726 73 231 0.0 0.0 0.00 0.00 0.00 79 1012.0
20260830115224 73 231 0.0 0.0 0.00 0.00 0.00 78 1012.0
20260830114723 73 231 0.0 0.0 0.00 0.00 0.00 78 1012.0
20260830114223 73 231 0.0 0.9 0.00 0.00 0.00 78 1011.9
20260830113721 73 231 0.0 0.9 0.00 0.00 0.00 77 1012.0
20260830113219 73 231 0.0 0.9 0.00 0.00 0.00 77 1012.1
20260830112718 73 231 0.0 0.9 0.00 0.00 0.00 77 1012.1
20260830112213 73 230 0.0 1.7 0.00 0.00 0.00 77 1012.0
20260830111715 74 231 0.9 1.7 0.00 0.00 0.00 76 1012.1
20260830111214 74 231 0.9 1.7 0.00 0.00 0.00 76 1012.1
20260830110708 74 231 0.0 2.6 0.00 0.00 0.00 76 1012.0
20260830110205 74 231 0.9 2.6 0.00 0.00 0.00 76 1012.0
20260830105705 74 231 0.9 2.6 0.00 0.00 0.00 76 1012.0
20260830105204 74 231 0.9 2.6 0.00 0.00 0.00 76 1012.0
20260830104702 74 231 0.9 2.6 0.00 0.00 0.00 76 1011.9
20260830104202 74 231 0.9 2.6 0.00 0.00 0.00 76 1011.9
20260830103656 74 231 0.0 2.6 0.00 0.00 0.00 76 1011.9
20260830103154 74 231 0.0 2.6 0.00 0.00 0.00 76 1012.0